Weather History for KSEZ - September, 2013

Change the Weather History Date:

Sunday, September 22, 2013

  Actual Average Record
Temperature  
Mean Temperature 66 °F -  
Max Temperature 75 °F 85 °F 93 °F (2012)
Min Temperature 57 °F 56 °F 57 °F (2013)
Cooling Degree Days 1    
Growing Degree Days 16 (Base 50)    
Moisture  
Dew Point 34 °F    
Average Humidity 31    
Maximum Humidity 49    
Minimum Humidity 12    
Precipitation  
Precipitation 0.00 in - - ()
Sea Level Pressure  
Sea Level Pressure 29.85 in    
Wind  
Wind Speed 12 mph (SSW)    
Max Wind Speed 26 mph    
Max Gust Speed 38 mph    
Visibility 10 miles    
Events      
Averages and records for this station are not official NWS values.
T = Trace of Precipitation, MM = Missing Value Source: NWS Daily Summary

Daily Weather History Graph

Daily Weather History Graph

Search for Another Location

Airport or City:

Trip Planner

Search our weather history database for the weather conditions in past years. The results will help you decide how hot, cold, wet, or windy it might be!

Date:

Astronomy

Sep. 22, 2013 Rise Set
Actual Time 6:15 AM MST 6:23 PM MST
Civil Twilight 5:50 AM MST 6:48 PM MST
Nautical Twilight 5:20 AM MST 7:18 PM MST
Astronomical Twilight 4:50 AM MST 7:47 PM MST
Moon 8:26 PM MST (9/22) 9:29 AM MST (9/22)
Length of Visible Light 12h 58m
Length of Day
12h 08m
Waning Gibbous, 88% of the Moon is Illuminated
Sep 22
Waning Gibbous
Sep 26
Last Quarter
Oct 4
New
Oct 11
First Quarter
Oct 18
Full

Hourly Weather History & Observations

Time (MST) Temp. Dew Point Humidity Pressure Visibility Wind Dir Wind Speed Gust Speed Precip Events Conditions
12:15 AM 71.6 °F 44.6 °F 38% 29.88 in 10.0 mi South 6.9 mph - N/A   Mostly Cloudy
12:35 AM 69.8 °F 44.6 °F 40% 29.87 in 10.0 mi SSE 8.1 mph - N/A   Overcast
12:55 AM 69.8 °F 44.6 °F 40% 29.88 in 10.0 mi SSW 6.9 mph - N/A   Overcast
1:15 AM 69.8 °F 44.6 °F 40% 29.87 in 10.0 mi SSW 5.8 mph - N/A   Overcast
1:35 AM 69.8 °F 46.4 °F 43% 29.87 in 10.0 mi South 6.9 mph - N/A   Overcast
1:55 AM 69.8 °F 46.4 °F 43% 29.87 in 10.0 mi South 8.1 mph - N/A   Overcast
2:15 AM 69.8 °F 46.4 °F 43% 29.86 in 10.0 mi South 9.2 mph - N/A   Overcast
2:35 AM 69.8 °F 46.4 °F 43% 29.85 in 10.0 mi South 9.2 mph - N/A   Overcast
2:55 AM 68.0 °F 48.2 °F 49% 29.84 in 10.0 mi SSE 12.7 mph - N/A   Overcast
3:15 AM 69.8 °F 50.0 °F 49% 29.83 in 10.0 mi South 16.1 mph 23.0 mph N/A   Mostly Cloudy
3:35 AM 69.8 °F 50.0 °F 49% 29.82 in 10.0 mi SSE 17.3 mph 26.5 mph N/A   Mostly Cloudy
3:55 AM 69.8 °F 48.2 °F 46% 29.82 in 10.0 mi South 17.3 mph 26.5 mph N/A   Overcast
4:15 AM 69.8 °F 48.2 °F 46% 29.82 in 10.0 mi SSE 15.0 mph 23.0 mph N/A   Overcast
4:35 AM 69.8 °F 48.2 °F 46% 29.82 in 10.0 mi South 13.8 mph - N/A   Overcast
5:15 AM 68.0 °F 46.4 °F 46% 29.83 in 10.0 mi South 11.5 mph 16.1 mph N/A   Overcast
5:35 AM 68.0 °F 44.6 °F 43% 29.84 in 10.0 mi South 9.2 mph - N/A   Overcast
5:55 AM 68.0 °F 42.8 °F 40% 29.83 in 10.0 mi South 10.4 mph 16.1 mph N/A   Overcast
6:15 AM 66.2 °F 42.8 °F 43% 29.83 in 10.0 mi South 15.0 mph 19.6 mph N/A   Overcast
6:35 AM 66.2 °F 42.8 °F 43% 29.84 in 10.0 mi South 6.9 mph 10.4 mph N/A   Overcast
6:55 AM 66.2 °F 42.8 °F 43% 29.84 in 10.0 mi SSW 9.2 mph - N/A   Overcast
7:15 AM 66.2 °F 42.8 °F 43% 29.85 in 10.0 mi South 10.4 mph 21.9 mph N/A   Overcast
7:35 AM 66.2 °F 41.0 °F 40% 29.85 in 10.0 mi South 9.2 mph 17.3 mph N/A   Overcast
7:55 AM 66.2 °F 41.0 °F 40% 29.84 in 10.0 mi South 13.8 mph 24.2 mph N/A   Overcast
8:15 AM 66.2 °F 41.0 °F 40% 29.84 in 10.0 mi South 12.7 mph 21.9 mph N/A   Overcast
8:35 AM 66.2 °F 41.0 °F 40% 29.84 in 10.0 mi South 16.1 mph 27.6 mph N/A   Overcast
8:55 AM 66.2 °F 42.8 °F 43% 29.84 in 10.0 mi SSE 13.8 mph 24.2 mph N/A   Overcast
9:15 AM 68.0 °F 42.8 °F 40% 29.83 in 10.0 mi South 11.5 mph 26.5 mph N/A   Overcast
9:35 AM 69.8 °F 44.6 °F 40% 29.82 in 10.0 mi SSE 16.1 mph 24.2 mph N/A   Overcast
9:55 AM 69.8 °F 44.6 °F 40% 29.82 in 10.0 mi South 19.6 mph 29.9 mph N/A   Overcast
10:15 AM 71.6 °F 42.8 °F 35% 29.82 in 10.0 mi SSW 17.3 mph 26.5 mph N/A   Overcast
10:35 AM 69.8 °F 39.2 °F 33% 29.81 in 10.0 mi South 19.6 mph 38.0 mph N/A   Overcast
10:55 AM 69.8 °F 37.4 °F 31% 29.81 in 10.0 mi South 24.2 mph 38.0 mph N/A   Overcast
11:15 AM 73.4 °F 35.6 °F 25% 29.81 in 10.0 mi SW 23.0 mph 29.9 mph N/A   Scattered Clouds
11:35 AM 73.4 °F 35.6 °F 25% 29.80 in 10.0 mi SSW 17.3 mph 32.2 mph N/A   Clear
11:55 AM 73.4 °F 35.6 °F 25% 29.80 in 10.0 mi SSW 18.4 mph 33.4 mph N/A   Clear
12:15 PM 73.4 °F 35.6 °F 25% 29.80 in 10.0 mi SSW 26.5 mph 35.7 mph N/A   Scattered Clouds
12:35 PM 73.4 °F 32.0 °F 22% 29.82 in 10.0 mi SW 21.9 mph 33.4 mph N/A   Scattered Clouds
12:55 PM 73.4 °F 30.2 °F 20% 29.82 in 10.0 mi SW 23.0 mph 38.0 mph N/A   Clear
1:15 PM 73.4 °F 30.2 °F 20% 29.80 in 10.0 mi West 13.8 mph 23.0 mph N/A   Scattered Clouds
1:35 PM 73.4 °F 28.4 °F 19% 29.80 in 10.0 mi WSW 18.4 mph 28.8 mph N/A   Clear
1:55 PM 71.6 °F 24.8 °F 17% 29.79 in 10.0 mi WSW 24.2 mph 32.2 mph N/A   Clear
2:15 PM 73.4 °F 17.6 °F 12% 29.80 in 10.0 mi SW 13.8 mph 32.2 mph N/A   Clear
2:35 PM 73.4 °F 17.6 °F 12% 29.79 in 10.0 mi SSW 13.8 mph 28.8 mph N/A   Clear
2:55 PM 73.4 °F 17.6 °F 12% 29.79 in 10.0 mi SW 15.0 mph 28.8 mph N/A   Clear
3:15 PM 75.2 °F 19.4 °F 12% 29.79 in 10.0 mi SSW 12.7 mph 27.6 mph N/A   Clear
3:35 PM 75.2 °F 21.2 °F 13% 29.79 in 10.0 mi West 13.8 mph 20.7 mph N/A   Clear
3:55 PM 73.4 °F 24.8 °F 16% 29.80 in 10.0 mi West 18.4 mph 29.9 mph N/A   Clear
4:15 PM 71.6 °F 23.0 °F 16% 29.81 in 10.0 mi West 23.0 mph 28.8 mph N/A   Clear
4:35 PM 71.6 °F 23.0 °F 16% 29.82 in 10.0 mi WNW 19.6 mph 26.5 mph N/A   Clear
4:55 PM 71.6 °F 21.2 °F 15% 29.83 in 10.0 mi West 16.1 mph 27.6 mph N/A   Clear
5:15 PM 71.6 °F 19.4 °F 14% 29.84 in 10.0 mi WNW 20.7 mph 26.5 mph N/A   Clear
5:35 PM 69.8 °F 19.4 °F 15% 29.85 in 10.0 mi West 13.8 mph 23.0 mph N/A   Clear
5:55 PM 68.0 °F 21.2 °F 17% 29.86 in 10.0 mi West 12.7 mph 19.6 mph N/A   Clear
6:15 PM 66.2 °F 21.2 °F 18% 29.86 in 10.0 mi WSW 8.1 mph 16.1 mph N/A   Clear
6:35 PM 64.4 °F 23.0 °F 21% 29.87 in 10.0 mi West 6.9 mph - N/A   Clear
6:55 PM 64.4 °F 23.0 °F 21% 29.88 in 10.0 mi West 9.2 mph - N/A   Clear
7:15 PM 64.4 °F 23.0 °F 21% 29.90 in 10.0 mi WSW 6.9 mph - N/A   Clear
7:35 PM 62.6 °F 23.0 °F 22% 29.90 in 10.0 mi West 8.1 mph - N/A   Clear
7:55 PM 62.6 °F 26.6 °F 26% 29.91 in 10.0 mi West 8.1 mph - N/A   Clear
8:15 PM 62.6 °F 26.6 °F 26% 29.93 in 10.0 mi WNW 6.9 mph - N/A   Clear
8:35 PM 60.8 °F 26.6 °F 27% 29.94 in 10.0 mi NW 4.6 mph - N/A   Clear
8:55 PM 60.8 °F 28.4 °F 29% 29.94 in 10.0 mi NNW 6.9 mph - N/A   Clear
9:15 PM 60.8 °F 28.4 °F 29% 29.95 in 10.0 mi NE 3.5 mph - N/A   Clear
9:35 PM 60.8 °F 28.4 °F 29% 29.95 in 10.0 mi ENE 5.8 mph - N/A   Clear
9:55 PM 60.8 °F 28.4 °F 29% 29.95 in 10.0 mi NE 6.9 mph - N/A   Clear
10:15 PM 59.0 °F 28.4 °F 31% 29.96 in 10.0 mi East 5.8 mph - N/A   Clear
10:35 PM 59.0 °F 28.4 °F 31% 29.96 in 10.0 mi NE 6.9 mph - N/A   Clear
10:55 PM 59.0 °F 28.4 °F 31% 29.97 in 10.0 mi NNE 9.2 mph - N/A   Clear
11:15 PM 59.0 °F 28.4 °F 31% 29.97 in 10.0 mi NE 8.1 mph - N/A   Clear
11:35 PM 57.2 °F 30.2 °F 36% 29.98 in 10.0 mi NE 8.1 mph - N/A   Clear
11:55 PM 57.2 °F 30.2 °F 36% 29.97 in 10.0 mi NE 10.4 mph - N/A   Clear